Timestamp[UTC];2m Lufttemperatur [degC] (tas);Stations-Luftdruck [Pa] (ps);relative Luftfeuchtigkeit [%] (hurs);spezifische Luftfeuchtigkeit [kg/kg] (huss);Niederschlagsmenge [mm] (pr);Windgeschwindigkeit in 2m [m/s] (sfcWind);Windrichtung [deg];maximale Windgeschwindigkeit [m/s] (wsgsmax);u-Windkomponente [m/s] (uas);v-Windkomponente [m/s] (vas);Sonneneinstrahlung [W/m2];Blitzrate [n];Blitzentfernung [km];Bodenfeuchte in 5cm Tiefe [vol%];Bodenfeuchte in 15cm Tiefe [vol%];Bodenfeuchte in 30cm Tiefe [vol%];Bodenfeuchte in 60cm Tiefe [vol%];Bodentemperatur in 5cm Tiefe [degC];Bodentemperatur in 15cm Tiefe [degC];Bodentemperatur in 30cm Tiefe [degC];Bodentemperatur in 60cm Tiefe [degC];Matrixpotential in 30cm Tiefe [kPa];Bodenfeuchte aus CRNS [vol%] (mrso);Neutronen Anzahl [N/h]
2021-09-01 00:00:00;14,8;101912;79;0,0082;0,0;0,8;320;1,6;0,62;-0,52;0;0;0;16,7;9,8;16,1;16,4;16,7;17,0;16,9;16,1;-159,5;25,4;1294
2021-09-01 01:00:00;14,6;101910;81;0,0082;0,0;0,9;317;1,9;0,69;-0,62;0;0;0;16,7;9,8;16,1;16,4;16,6;16,9;16,9;16,1;-159,4;25,0;1297
2021-09-01 02:00:00;14,6;101900;82;0,0083;0,0;0,8;323;1,4;0,63;-0,47;0;0;0;16,7;9,8;16,1;16,4;16,4;16,8;16,9;16,1;-159,4;24,8;1326
2021-09-01 03:00:00;14,6;101905;81;0,0083;0,0;0,9;318;1,6;0,71;-0,6;0;0;0;16,7;9,8;16,1;16,4;16,3;16,7;16,8;16,1;-159,4;24,9;1245
2021-09-01 04:00:00;14,5;101915;82;0,0083;0,0;0,9;327;1,8;0,78;-0,5;0;0;0;16,7;9,8;16,1;16,4;16,2;16,6;16,8;16,1;-159,4;24,9;1267
2021-09-01 05:00:00;14,4;101920;83;0,0083;0,0;0,8;328;1,5;0,71;-0,43;7;0;0;16,7;9,8;16,1;16,4;16,1;16,5;16,7;16,1;-159,3;25,0;1276
2021-09-01 06:00:00;14,5;101942;83;0,0084;0,0;0,8;322;1,3;0,6;-0,46;27;0;0;16,6;9,8;16,1;16,4;16,1;16,4;16,7;16,1;-159,4;24,9;1321
2021-09-01 07:00:00;14,9;101980;81;0,0084;0,0;1,0;322;1,9;0,79;-0,59;53;0;0;16,6;9,8;16,1;16,4;16,0;16,4;16,6;16,1;-159,5;24,7;1256
2021-09-01 08:00:00;15,2;102035;79;0,0083;0,0;0,8;332;1,7;0,72;-0,4;92;0;0;16,6;9,8;16,1;16,4;16,1;16,3;16,6;16,1;-159,6;24,6;1246
2021-09-01 09:00:00;15,4;102063;76;0,0082;0,0;1,0;325;2,5;0,86;-0,59;145;0;0;16,6;9,8;16,0;16,4;16,2;16,3;16,6;16,1;-159,7;24,3;1246
2021-09-01 10:00:00;15,9;102070;73;0,0081;0,0;0,9;333;2,0;0,78;-0,39;200;0;0;16,5;9,8;16,0;16,4;16,3;16,3;16,6;16,1;-159,7;24,3;1347
2021-09-01 11:00:00;16,4;102070;72;0,0082;0,0;0,9;330;2,2;0,76;-0,43;194;0;0;16,4;9,8;16,0;16,4;16,5;16,4;16,5;16,1;-159,9;24,2;1312
2021-09-01 12:00:00;16,5;102060;70;0,0081;0,0;1,0;330;2,2;0,89;-0,5;199;0;0;16,4;9,8;16,0;16,4;16,7;16,4;16,5;16,1;-160,0;24,3;1356
2021-09-01 13:00:00;17,0;102032;68;0,0081;0,0;0,9;333;2,1;0,75;-0,38;174;0;0;16,3;9,8;16,0;16,4;16,8;16,5;16,5;16,1;-160,1;24,2;1324
2021-09-01 14:00:00;17,2;102012;68;0,0081;0,0;0,8;334;1,8;0,69;-0,33;150;0;0;16,3;9,7;16,0;16,4;16,9;16,6;16,5;16,1;-160,4;24,2;1265
2021-09-01 15:00:00;17,2;101985;68;0,0081;0,0;0,6;316;1,3;0,47;-0,43;100;0;0;16,2;9,7;16,0;16,4;17,0;16,7;16,5;16,1;-160,6;24,4;1279
2021-09-01 16:00:00;17,2;101962;71;0,0085;0,0;0,5;314;1,2;0,39;-0,36;82;0;0;16,2;9,7;15,9;16,4;17,0;16,7;16,5;16,1;-160,5;24,3;1268
2021-09-01 17:00:00;16,8;101973;71;0,0083;0,0;0,7;330;1,6;0,62;-0,36;30;0;0;16,1;9,7;15,9;16,4;16,9;16,7;16,5;16,1;-160,7;24,2;1286
2021-09-01 18:00:00;16,1;101995;75;0,0084;0,0;0,4;308;0,9;0,22;-0,27;4;0;0;16,1;9,7;15,9;16,4;16,8;16,7;16,6;16,1;-160,7;24,1;1305
2021-09-01 19:00:00;14,3;102030;82;0,0081;0,0;0,4;289;0,5;0,12;-0,33;0;0;0;16,1;9,7;15,9;16,4;16,6;16,7;16,6;16,1;-160,7;24,2;1336
2021-09-01 20:00:00;13,0;102045;85;0,0078;0,0;0,3;310;0,5;0,22;-0,26;0;0;0;16,1;9,7;15,9;16,4;16,3;16,6;16,6;16,1;-160,5;24,2;1319
2021-09-01 21:00:00;12,1;102050;88;0,0076;0,0;0,3;298;0,5;0,14;-0,26;0;0;0;16,1;9,7;15,9;16,4;15,9;16,4;16,6;16,1;-160,2;24,3;1271
2021-09-01 22:00:00;11,4;102042;90;0,0074;0,0;0,3;302;0,5;0,15;-0,25;0;0;0;16,1;9,7;15,9;16,4;15,6;16,3;16,5;16,1;-160,4;24,1;1294
2021-09-01 23:00:00;11,1;102038;92;0,0074;0,0;0,3;281;0,4;0,06;-0,27;0;0;0;16,1;9,7;15,9;16,4;15,3;16,1;16,5;16,1;-160,0;24,2;1293
2021-09-02 00:00:00;10,6;102035;92;0,0072;0,0;0,3;220;0,5;0,17;-0,24;0;0;0;16,1;9,7;15,9;16,4;15,1;15,9;16,4;16,1;-159,9;24,3;1329
2021-09-02 01:00:00;9,9;102022;93;0,0069;0,0;0,3;294;0,4;0,11;-0,24;0;0;0;16,0;9,7;15,9;16,4;14,8;15,7;16,4;16,1;-160,0;24,6;1304
2021-09-02 02:00:00;9,6;102002;92;0,0067;0,0;0,2;312;0,5;0,17;-0,18;0;0;0;16,0;9,7;15,9;16,4;14,6;15,5;16,3;16,1;-160,0;24,7;1252
2021-09-02 03:00:00;9,1;101982;93;0,0065;0,0;0,3;292;0,5;0,14;-0,27;0;0;0;16,0;9,7;15,9;16,4;14,3;15,4;16,2;16,1;-160,2;24,6;1309
2021-09-02 04:00:00;8,6;101992;93;0,0064;0,0;0,3;310;0,5;0,22;-0,22;0;0;0;16,0;9,7;15,9;16,4;14,1;15,2;16,2;16,1;-160,2;24,5;1322
2021-09-02 05:00:00;8,5;101982;95;0,0065;0,02;0,3;230;0,5;0,2;-0,12;43;0;0;16,0;9,7;15,9;16,4;13,9;15,0;16,1;16,0;-160,6;24,5;1315
2021-09-02 06:00:00;11,1;101972;99;0,0081;0,0;0,3;196;0,5;0,06;-0,07;168;0;0;16,0;9,7;15,9;16,4;13,8;14,9;16,0;16,0;-160,5;24,4;1283
2021-09-02 07:00:00;14,7;101980;94;0,0096;0,0;0,7;132;1,6;0,36;0,55;305;0;0;16,0;9,7;15,9;16,4;14,2;14,8;15,9;16,0;-160,6;24,5;1274
2021-09-02 08:00:00;16,7;102002;77;0,009;0,0;1,2;100;2,5;-0,16;1,06;385;0;0;15,9;9,7;15,9;16,4;14,9;14,9;15,8;16,0;-161,0;24,6;1223
2021-09-02 09:00:00;17,5;102010;70;0,0086;0,0;1,1;39;2,5;0,8;0,72;435;0;0;15,8;9,7;15,8;16,4;15,7;15,1;15,8;16,0;-161,6;24,5;1295
2021-09-02 10:00:00;18,4;101990;67;0,0087;0,0;1,4;68;3,2;0,48;1,17;512;0;0;15,7;9,7;15,8;16,4;16,4;15,5;15,8;16,0;-162,0;24,4;1331
2021-09-02 11:00:00;19,1;101960;64;0,0086;0,0;1,0;117;2,1;0,05;0,65;468;0;0;15,6;9,7;15,8;16,3;17,0;15,9;15,8;16,0;-162,3;24,2;1259
2021-09-02 12:00:00;19,8;101930;61;0,0086;0,0;0,7;223;1,9;-0,04;0,06;409;0;0;15,5;9,7;15,8;16,3;17,4;16,2;15,9;16,0;-162,9;24,3;1292
2021-09-02 13:00:00;20,5;101895;58;0,0086;0,0;1,4;70;3,1;0,32;1,08;584;0;0;15,3;9,7;15,7;16,3;17,8;16,5;16,0;16,0;-163,4;24,3;1280
2021-09-02 14:00:00;20,2;101845;58;0,0084;0,0;1,9;53;3,5;0,99;1,47;299;0;0;15,2;9,6;15,7;16,3;18,0;16,8;16,1;15,9;-164,5;24,2;1309
2021-09-02 15:00:00;20,4;101788;57;0,0083;0,0;1,0;64;2,7;0,42;0,91;84;0;0;15,1;9,6;15,7;16,3;18,0;17,0;16,2;15,9;-165,1;24,1;1341
2021-09-02 16:00:00;20,2;101720;57;0,0084;0,0;1,7;56;3,1;0,96;1,41;52;0;0;15,1;9,6;15,7;16,3;17,8;17,1;16,2;15,9;-165,1;24,0;1296
2021-09-02 17:00:00;19,6;101693;61;0,0085;0,0;1,3;41;2,3;0,99;0,89;34;0;0;15,0;9,6;15,7;16,3;17,6;17,0;16,3;15,9;-164,8;23,8;1348
2021-09-02 18:00:00;17,9;101690;68;0,0086;0,0;0,7;40;1,7;0,58;0,45;8;0;0;15,0;9,6;15,7;16,3;17,3;17,0;16,4;15,9;-164,7;23,8;1339
2021-09-02 19:00:00;16,3;101690;74;0,0084;0,0;0,8;67;1,4;0,31;0,76;0;0;0;15,0;9,6;15,7;16,3;16,9;16,9;16,4;15,9;-164,5;23,9;1339
2021-09-02 20:00:00;15,9;101690;76;0,0084;0,0;1,2;54;2,0;0,71;1,01;0;0;0;15,0;9,6;15,7;16,3;16,6;16,8;16,4;15,9;-164,1;23,7;1355
2021-09-02 21:00:00;15,4;101692;78;0,0084;0,0;1,4;42;2,2;1,03;0,94;0;0;0;15,0;9,6;15,6;16,3;16,4;16,6;16,4;15,9;-164,4;23,3;1344
2021-09-02 22:00:00;14,6;101678;81;0,0083;0,0;1,4;38;2,1;1,07;0,88;0;0;0;15,0;9,6;15,6;16,3;16,1;16,5;16,4;15,9;-163,8;23,3;1388
2021-09-02 23:00:00;13,8;101642;84;0,0081;0,0;1,0;26;1,7;0,92;0,48;0;0;0;15,0;9,6;15,6;16,3;15,9;16,3;16,4;15,9;-163,5;23,5;1296
2021-09-03 00:00:00;12,7;101608;86;0,0078;0,0;0,6;319;1,1;0,43;-0,36;0;0;0;15,0;9,6;15,6;16,3;15,7;16,2;16,4;15,9;-163,4;23,3;1394
2021-09-03 01:00:00;12,2;101600;88;0,0077;0,0;0,6;320;1,0;0,43;-0,35;0;0;0;15,0;9,6;15,6;16,3;15,5;16,1;16,3;15,9;-163,5;23,2;1372
2021-09-03 02:00:00;11,8;101568;89;0,0076;0,0;0,6;166;1,4;0,56;-0,06;0;0;0;15,0;9,6;15,6;16,3;15,3;15,9;16,3;15,9;-163,1;23,2;1320
2021-09-03 03:00:00;11,8;101525;91;0,0077;0,0;1,1;19;2,1;1,01;0,36;0;0;0;15,0;9,6;15,6;16,3;15,1;15,8;16,3;15,9;-163,2;23,2;1408
2021-09-03 04:00:00;11,4;101480;92;0,0076;0,0;0,8;18;1,5;0,79;0,28;0;0;0;15,0;9,6;15,6;16,3;14,9;15,6;16,2;15,9;-163,3;23,0;1406
2021-09-03 05:00:00;11,2;101455;93;0,0076;0,02;0,9;19;2,1;0,84;0,32;33;0;0;14,9;9,6;15,6;16,3;14,8;15,5;16,1;15,9;-163,2;22,8;1370
2021-09-03 06:00:00;12,5;101428;97;0,0087;0,0;1,1;36;1,9;0,86;0,61;154;0;0;14,9;9,6;15,6;16,3;14,8;15,4;16,1;15,9;-163,2;22,9;1311
2021-09-03 07:00:00;15,0;101420;90;0,0094;0,0;1,1;36;2,0;0,92;0,67;284;0;0;14,8;9,6;15,6;16,3;15,1;15,4;16,0;15,9;-163,3;22,8;1400
2021-09-03 08:00:00;17,2;101408;80;0,0096;0,0;1,9;56;3,4;1,07;1,61;412;0;0;14,8;9,6;15,6;16,3;15,7;15,5;16,0;15,9;-163,4;22,9;1413
2021-09-03 09:00:00;18,8;101410;70;0,0094;0,0;2,4;62;3,9;1,1;2,13;526;0;0;14,6;9,6;15,6;16,3;16,6;15,7;16,0;15,9;-164,2;23,0;1344
2021-09-03 10:00:00;20,0;101380;67;0,0096;0,0;1,9;61;3,9;0,9;1,7;599;0;0;14,5;9,6;15,5;16,3;17,3;16,1;16,0;15,9;-165,1;23,1;1356
2021-09-03 11:00:00;20,8;101348;63;0,0096;0,0;1,6;200;3,7;1,02;0,54;620;0;0;14,4;9,6;15,5;16,2;18,0;16,5;16,0;15,9;-165,9;23,1;1382
2021-09-03 12:00:00;21,7;101320;60;0,0095;0,0;1,2;134;2,9;0,74;0,75;590;0;0;14,2;9,5;15,4;16,2;18,5;16,9;16,1;15,9;-166,5;23,0;1400
2021-09-03 13:00:00;22,2;101282;58;0,0095;0,0;1,2;54;3,0;0,66;0,98;512;0;0;14,1;9,5;15,4;16,2;18,9;17,2;16,2;15,9;-168,0;23,1;1327
2021-09-03 14:00:00;22,4;101222;56;0,0093;0,0;1,5;345;3,8;1,43;-0,36;353;0;0;14,0;9,5;15,4;16,2;19,0;17,5;16,3;15,9;-168,8;23,1;1372
2021-09-03 15:00:00;21,9;101165;56;0,0091;0,0;1,5;267;3,8;1,41;-0,07;100;0;0;13,9;9,5;15,4;16,2;18,9;17,7;16,5;15,9;-169,2;22,9;1492
2021-09-03 16:00:00;21,2;101145;58;0,0091;0,0;1,3;102;2,9;1,2;0,28;57;0;0;13,9;9,5;15,4;16,2;18,6;17,7;16,6;15,9;-169,2;23,0;1417
2021-09-03 17:00:00;19,7;101120;65;0,0092;0,0;1,0;257;2,7;0,94;-0,09;30;0;0;13,9;9,5;15,3;16,2;18,3;17,7;16,7;15,9;-169,0;23,1;1379
2021-09-03 18:00:00;17,8;101127;72;0,009;0,0;0,6;329;1,4;0,47;-0,29;5;0;0;13,8;9,5;15,3;16,2;18,0;17,6;16,7;15,9;-168,9;23,3;1427
2021-09-03 19:00:00;15,9;101168;78;0,0088;0,0;0,4;334;1,2;0,31;-0,14;0;0;0;13,8;9,5;15,3;16,2;17,6;17,5;16,8;15,9;-168,6;23,0;1368
2021-09-03 20:00:00;14,9;101182;82;0,0086;0,0;0,8;8;2,0;0,8;0,13;0;0;0;13,8;9,5;15,3;16,2;17,2;17,3;16,8;15,9;-168,2;23,1;1351
2021-09-03 21:00:00;14,1;101190;85;0,0085;0,0;1,4;28;3,1;1,19;0,66;0;0;0;13,8;9,5;15,3;16,2;16,9;17,2;16,8;15,9;-167,9;23,2;1377
2021-09-03 22:00:00;13,3;101208;87;0,0082;0,0;1,4;30;2,5;1,18;0,7;0;0;0;13,8;9,5;15,3;16,2;16,6;17,0;16,8;15,9;-167,6;23,1;1449
2021-09-03 23:00:00;12,4;101212;88;0,0078;0,0;1,2;34;2,2;0,98;0,67;0;0;0;13,8;9,5;15,3;16,2;16,3;16,8;16,8;15,9;-167,2;23,1;1386
2021-09-04 00:00:00;12,0;101195;90;0,0077;0,0;1,0;35;2,0;0,76;0,55;0;0;0;13,8;9,5;15,3;16,2;16,1;16,6;16,7;15,9;-167,2;23,1;1401
2021-09-04 01:00:00;12,3;101158;90;0,0079;0,0;1,9;52;4,0;1,12;1,55;0;0;0;13,8;9,5;15,3;16,2;15,9;16,4;16,7;15,9;-167,2;23,3;1422
2021-09-04 02:00:00;12,6;101147;89;0,0081;0,0;2,2;64;4,1;0,95;2,0;0;0;0;13,8;9,5;15,3;16,2;15,7;16,3;16,6;15,9;-167,3;23,1;1430
2021-09-04 03:00:00;12,9;101142;88;0,008;0,0;2,4;65;5,1;0,98;2,22;0;0;0;13,8;9,5;15,3;16,2;15,6;16,2;16,6;16,0;-167,1;23,0;1408
2021-09-04 04:00:00;13,0;101145;85;0,0079;0,0;2,0;60;3,5;0,99;1,68;0;0;0;13,8;9,5;15,3;16,2;15,5;16,0;16,5;16,0;-167,2;23,2;1407
2021-09-04 05:00:00;12,9;101158;83;0,0076;0,0;2,0;66;3,7;0,81;1,72;8;0;0;13,8;9,5;15,3;16,2;15,4;15,9;16,4;16,0;-167,2;23,3;1353
2021-09-04 06:00:00;13,1;101168;82;0,0076;0,0;2,3;64;4,0;1,0;2,07;47;0;0;13,8;9,5;15,3;16,2;15,3;15,8;16,4;16,0;-167,4;23,3;1455
2021-09-04 07:00:00;13,5;101170;80;0,0077;0,0;2,6;66;4,1;1,03;2,28;128;0;0;13,7;9,5;15,3;16,2;15,3;15,8;16,3;16,0;-167,5;23,4;1393
2021-09-04 08:00:00;14,2;101182;78;0,0078;0,0;2,8;70;4,3;0,94;2,6;245;0;0;13,7;9,5;15,2;16,2;15,4;15,7;16,3;16,0;-167,8;23,3;1429
2021-09-04 09:00:00;15,6;101183;72;0,0079;0,0;2,9;64;4,7;1,21;2,55;422;0;0;13,6;9,4;15,2;16,2;15,7;15,8;16,2;16,0;-168,5;23,2;1421
2021-09-04 10:00:00;17,3;101170;66;0,0081;0,0;2,9;70;5,1;0,98;2,69;596;0;0;13,5;9,4;15,2;16,1;16,3;15,9;16,2;16,0;-169,5;23,0;1375
2021-09-04 11:00:00;18,2;101148;62;0,008;0,0;2,5;69;5,2;0,9;2,33;628;0;0;13,4;9,4;15,1;16,1;16,9;16,1;16,2;16,0;-170,4;22,9;1408
2021-09-04 12:00:00;19,0;101118;59;0,008;0,0;2,5;68;4,3;0,9;2,3;614;0;0;13,3;9,4;15,1;16,1;17,4;16,4;16,2;16,0;-172,5;22,7;1376
2021-09-04 13:00:00;19,7;101095;58;0,0081;0,0;2,7;65;4,9;1,11;2,44;555;0;0;13,2;9,3;15,0;16,0;17,8;16,7;16,2;16,0;-173,6;22,7;1405
2021-09-04 14:00:00;20,0;101083;56;0,0081;0,0;2,6;57;4,5;1,37;2,16;262;0;0;13,1;9,3;15,0;16,0;17,9;16,9;16,3;15,9;-174,4;22,8;1463
2021-09-04 15:00:00;20,1;101062;55;0,008;0,0;2,5;66;4,1;1,03;2,31;78;0;0;13,1;9,3;15,0;16,0;17,8;17,1;16,4;15,9;-175,2;23,1;1427
2021-09-04 16:00:00;19,6;101050;56;0,0079;0,0;2,2;55;3,8;1,28;1,85;53;0;0;13,0;9,3;15,0;16,0;17,6;17,1;16,5;15,9;-176,1;23,0;1388
2021-09-04 17:00:00;18,6;101057;60;0,0079;0,0;1,5;52;2,6;0,97;1,18;28;0;0;13,0;9,3;14,9;16,0;17,4;17,1;16,5;15,9;-176,4;22,9;1410
2021-09-04 18:00:00;16,7;101093;67;0,0078;0,0;0,8;74;1,3;0,23;0,73;2;0;0;12,9;9,3;14,9;16,0;17,1;17,0;16,6;15,9;-176,0;22,8;1390
2021-09-04 19:00:00;16,0;101155;70;0,0078;0,0;0,9;57;1,3;0,48;0,78;0;0;0;12,9;9,3;14,9;16,0;16,8;16,9;16,6;15,9;-176,2;22,8;1392
2021-09-04 20:00:00;15,1;101188;74;0,0078;0,0;1,6;60;2,8;0,78;1,39;0;0;0;12,9;9,3;14,9;16,0;16,4;16,7;16,6;15,9;-175,5;22,7;1392
2021-09-04 21:00:00;14,4;101217;75;0,0076;0,0;1,7;63;2,9;0,76;1,52;0;0;0;12,9;9,3;14,9;16,0;16,2;16,6;16,6;15,9;-175,2;22,7;1479
2021-09-04 22:00:00;13,8;101225;77;0,0074;0,0;2,0;58;3,2;1,04;1,67;0;0;0;12,9;9,3;14,9;16,0;15,9;16,4;16,5;15,9;-175,4;22,6;1480
2021-09-04 23:00:00;13,0;101240;79;0,0073;0,0;1,7;54;2,6;1,02;1,42;0;0;0;12,9;9,3;14,9;16,0;15,7;16,3;16,5;15,9;-175,5;22,6;1439
2021-09-05 00:00:00;12,2;101240;81;0,0071;0,0;1,2;40;2,1;0,94;0,82;0;0;0;12,9;9,3;14,9;16,0;15,5;16,1;16,5;15,9;-175,5;22,4;1399
2021-09-05 01:00:00;11,3;101248;84;0,0069;0,0;0,8;23;1,5;0,66;0,34;0;0;0;12,9;9,3;14,9;16,0;15,2;16,0;16,4;15,9;-175,0;22,3;1388
2021-09-05 02:00:00;10,9;101267;85;0,0068;0,0;0,6;29;1,2;0,56;0,31;0;0;0;12,9;9,3;14,9;16,0;15,0;15,8;16,3;16,0;-175,1;22,2;1308
2021-09-05 03:00:00;10,3;101278;87;0,0067;0,0;1,2;29;2,4;0,98;0,65;0;0;0;12,9;9,3;14,9;16,0;14,8;15,6;16,3;15,9;-175,1;22,2;1420
2021-09-05 04:00:00;10,0;101283;88;0,0066;0,0;1,7;35;2,7;1,39;0,99;0;0;0;12,9;9,3;14,9;16,0;14,5;15,5;16,2;15,9;-175,1;22,1;1469
2021-09-05 05:00:00;10,1;101300;88;0,0067;0,0;1,9;41;3,1;1,45;1,28;42;0;0;12,9;9,3;14,9;16,0;14,4;15,3;16,1;15,9;-175,4;22,2;1385
2021-09-05 06:00:00;11,4;101285;88;0,0073;0,0;2,0;47;3,3;1,35;1,47;157;0;0;12,8;9,3;14,9;16,0;14,3;15,2;16,1;16,0;-175,3;22,2;1431
2021-09-05 07:00:00;13,3;101307;84;0,0078;0,0;2,0;65;3,4;0,79;1,81;283;0;0;12,8;9,3;14,9;16,0;14,6;15,1;16,0;15,9;-175,3;22,1;1432
2021-09-05 08:00:00;15,8;101325;74;0,0082;0,0;2,7;74;4,4;0,68;2,55;426;0;0;12,8;9,3;14,8;16,0;15,1;15,2;16,0;15,9;-176,4;21,9;1425
2021-09-05 09:00:00;17,7;101372;67;0,0084;0,0;2,8;64;5,0;1,24;2,52;529;0;0;12,7;9,2;14,8;15,9;15,8;15,4;15,9;15,9;-177,6;21,9;1426
2021-09-05 10:00:00;19,5;101373;60;0,0083;0,0;2,7;108;4,6;-0,85;2,45;598;0;0;12,6;9,2;14,7;15,9;16,5;15,6;15,9;15,9;-178,8;22,1;1356
2021-09-05 11:00:00;20,5;101355;57;0,0085;0,0;2,5;88;5,1;0,11;2,5;629;0;0;12,5;9,2;14,7;15,9;17,2;16,0;15,9;15,9;-181,4;22,3;1460
2021-09-05 12:00:00;21,4;101350;55;0,0086;0,0;2,5;75;4,5;0,64;2,42;620;0;0;12,4;9,2;14,6;15,8;17,7;16,3;16,0;15,9;-183,0;22,3;1389
2021-09-05 13:00:00;22,0;101332;52;0,0084;0,0;2,6;84;5,1;0,26;2,58;563;0;0;12,3;9,1;14,6;15,8;18,2;16,7;16,1;15,9;-185,1;22,3;1425
2021-09-05 14:00:00;22,3;101325;50;0,0083;0,0;2,5;80;4,4;0,41;2,41;304;0;0;12,3;9,1;14,5;15,8;18,2;17,0;16,2;15,9;-187,0;22,0;1404
2021-09-05 15:00:00;22,2;101338;49;0,0081;0,0;2,0;77;3,8;0,44;1,91;68;0;0;12,2;9,1;14,5;15,7;18,0;17,1;16,2;15,9;-187,4;21,8;1420
2021-09-05 16:00:00;21,4;101342;55;0,0087;0,0;2,1;60;3,6;1,08;1,78;46;0;0;12,2;9,1;14,5;15,7;17,8;17,2;16,3;15,9;-188,1;21,8;1323
2021-09-05 17:00:00;19,9;101360;63;0,009;0,0;1,9;57;3,1;1,06;1,58;24;0;0;12,2;9,1;14,5;15,7;17,7;17,1;16,4;15,8;-188,2;21,8;1377
2021-09-05 18:00:00;17,9;101390;70;0,0088;0,0;1,4;66;2,4;0,55;1,27;3;0;0;12,2;9,1;14,5;15,7;17,4;17,1;16,5;15,8;-188,2;21,6;1410
2021-09-05 19:00:00;16,7;101432;72;0,0084;0,0;1,5;64;2,6;0,64;1,37;0;0;0;12,2;9,1;14,5;15,7;17,1;17,0;16,5;15,9;-188,3;21,7;1412
2021-09-05 20:00:00;15,6;101475;76;0,0083;0,0;1,0;56;1,7;0,55;0,87;0;0;0;12,2;9,1;14,4;15,7;16,8;16,9;16,5;15,8;-188,0;21,5;1399
2021-09-05 21:00:00;14,3;101500;80;0,0081;0,0;0,6;169;1,0;0,47;0,06;0;0;0;12,1;9,1;14,4;15,7;16,5;16,7;16,5;15,9;-187,8;21,7;1328
2021-09-05 22:00:00;13,0;101500;85;0,0078;0,0;0,5;321;0,7;0,39;-0,31;0;0;0;12,1;9,1;14,4;15,7;16,1;16,5;16,5;15,9;-187,7;21,7;1380
2021-09-05 23:00:00;12,7;101490;88;0,0079;0,0;0,5;262;1,1;0,5;-0,05;0;0;0;12,1;9,1;14,4;15,7;15,8;16,4;16,5;15,9;-187,4;21,6;1420
2021-09-06 00:00:00;12,7;101475;88;0,0079;0,0;1,0;22;1,7;0,9;0,39;0;0;0;12,1;9,1;14,4;15,7;15,6;16,2;16,4;15,9;-187,3;21,6;1363
2021-09-06 01:00:00;11,5;101495;90;0,0075;0,0;0,6;173;1,4;0,57;-0,03;0;0;0;12,1;9,0;14,4;15,7;15,3;16,0;16,4;15,9;-187,4;21,4;1477
2021-09-06 02:00:00;10,5;101503;90;0,007;0,0;0,4;323;0,8;0,35;-0,27;0;0;0;12,1;9,0;14,4;15,7;15,1;15,9;16,3;15,9;-187,2;21,4;1380
2021-09-06 03:00:00;9,6;101502;90;0,0066;0,0;0,4;330;0,7;0,38;-0,22;0;0;0;12,1;9,1;14,4;15,7;14,8;15,7;16,3;15,9;-187,2;21,3;1392
2021-09-06 04:00:00;9,4;101490;91;0,0066;0,0;0,5;250;0,9;0,42;-0,16;0;0;0;12,1;9,0;14,4;15,7;14,5;15,5;16,2;15,9;-187,2;21,1;1452
2021-09-06 05:00:00;9,0;101532;93;0,0066;0,04;0,5;257;0,8;0,46;-0,12;28;0;0;12,1;9,0;14,4;15,7;14,3;15,3;16,1;15,9;-187,2;20,9;1430
2021-09-06 06:00:00;10,2;101530;99;0,0076;0,02;0,8;257;1,5;0,69;-0,21;157;0;0;12,1;9,0;14,4;15,7;14,2;15,2;16,1;15,9;-187,5;20,8;1383
2021-09-06 07:00:00;13,2;101557;92;0,0086;0,0;0,7;174;1,5;0,62;-0,13;286;0;0;12,1;9,0;14,4;15,7;14,4;15,1;16,0;15,9;-187,4;20,9;1439
2021-09-06 08:00:00;16,6;101610;80;0,0094;0,0;0,8;189;2,0;0,78;0,08;412;0;0;12,1;9,0;14,4;15,7;15,0;15,1;15,9;15,9;-187,5;20,7;1338
2021-09-06 09:00:00;18,8;101652;68;0,0091;0,0;1,7;60;3,0;0,82;1,45;472;0;0;12,0;9,0;14,3;15,7;15,9;15,3;15,9;15,9;-188,8;20,6;1362
2021-09-06 10:00:00;19,8;101640;63;0,0089;0,0;1,7;66;3,1;0,67;1,49;480;0;0;12,0;9,0;14,3;15,6;16,6;15,6;15,9;15,8;-190,7;20,4;1375
2021-09-06 11:00:00;21,4;101628;57;0,0089;0,0;1,2;148;3,0;0,4;0,82;618;0;0;11,9;9,0;14,2;15,6;17,3;16,0;15,9;15,9;-192,6;20,3;1434
2021-09-06 12:00:00;22,1;101630;54;0,0088;0,0;1,4;70;3,0;0,38;1,07;565;0;0;11,9;8,9;14,2;15,5;17,9;16,4;16,0;15,8;-194,2;20,3;1433
2021-09-06 13:00:00;22,0;101625;52;0,0084;0,0;1,5;53;2,9;0,85;1,14;399;0;0;11,8;8,9;14,1;15,5;18,2;16,7;16,0;15,8;-196,9;20,2;1393
2021-09-06 14:00:00;22,8;101602;47;0,008;0,0;1,2;44;2,8;0,76;0,72;336;0;0;11,8;8,9;14,1;15,5;18,4;17,0;16,1;15,8;-198,2;20,3;1410
2021-09-06 15:00:00;22,0;101608;47;0,0076;0,0;0,7;166;1,8;0,6;-0,09;118;0;0;11,8;8,9;14,1;15,4;18,2;17,2;16,2;15,8;-198,8;20,1;1510
2021-09-06 16:00:00;21,7;101592;50;0,008;0,0;1,0;40;1,7;0,76;0,64;76;0;0;11,7;8,9;14,0;15,4;18,1;17,2;16,3;15,8;-199,4;20,0;1412
2021-09-06 17:00:00;20,2;101580;59;0,0085;0,0;0,4;185;0,6;0,3;0,06;31;0;0;11,7;8,9;14,0;15,4;17,9;17,2;16,4;15,8;-199,7;19,8;1407
2021-09-06 18:00:00;18,9;101610;69;0,0093;0,0;0,3;240;0,7;0,29;-0,04;2;0;0;11,7;8,9;14,0;15,4;17,6;17,2;16,5;15,8;-199,6;19,8;1323
2021-09-06 19:00:00;18,2;101650;71;0,0091;0,0;0,3;166;0,6;0,26;-0,05;0;0;0;11,7;8,9;14,0;15,4;17,4;17,1;16,5;15,8;-199,5;19,6;1477
2021-09-06 20:00:00;17,6;101685;70;0,0087;0,0;0,4;245;0,8;0,29;-0,06;0;0;0;11,7;8,9;14,0;15,4;17,2;17,0;16,5;15,8;-199,0;19,8;1442
2021-09-06 21:00:00;16,6;101678;70;0,0081;0,0;0,4;292;0,6;0,14;-0,32;0;0;0;11,7;8,9;14,0;15,4;16,9;16,9;16,5;15,8;-198,8;19,6;1400
2021-09-06 22:00:00;15,0;101672;77;0,0081;0,0;0,4;301;1,1;0,22;-0,24;0;0;0;11,7;8,9;14,0;15,4;16,6;16,8;16,5;15,8;-198,4;19,5;1396
2021-09-06 23:00:00;14,0;101678;81;0,0079;0,0;0,4;313;0,6;0,24;-0,27;0;0;0;11,7;8,9;14,0;15,4;16,3;16,7;16,5;15,8;-198,4;19,5;1431
2021-09-07 00:00:00;14,2;101650;79;0,0078;0,0;0,3;280;0,5;0,03;-0,26;0;0;0;11,7;8,9;14,0;15,4;16,1;16,5;16,5;15,8;-198,4;19,7;1405
2021-09-07 01:00:00;13,5;101628;82;0,0078;0,0;0,4;272;0,8;0,21;-0,12;0;0;0;11,7;8,9;14,0;15,4;15,9;16,4;16,5;15,8;-198,6;19,9;1403
2021-09-07 02:00:00;14,9;101628;78;0,0081;0,0;0,3;147;0,9;-0,19;0,15;0;0;0;11,7;8,9;14,0;15,4;15,7;16,2;16,4;15,8;-198,2;19,9;1425
2021-09-07 03:00:00;14,7;101613;79;0,0082;0,0;0,3;245;0,7;-0,13;-0,25;0;0;0;11,7;8,9;14,0;15,4;15,7;16,1;16,4;15,8;-198,2;20,0;1449
2021-09-07 04:00:00;14,7;101600;80;0,0082;0,0;0,3;219;0,7;-0,01;-0,17;0;0;0;11,7;8,9;14,0;15,4;15,6;16,0;16,3;15,8;-197,9;20,3;1508
2021-09-07 05:00:00;14,6;101608;80;0,0082;0,0;0,3;285;0,6;0,07;-0,28;4;0;0;11,7;8,9;14,0;15,4;15,6;16,0;16,3;15,8;-198,4;20,3;1388
2021-09-07 06:00:00;15,0;101640;82;0,0086;0,0;0,3;253;0,5;0,19;-0,02;34;0;0;11,7;8,9;14,0;15,4;15,6;15,9;16,3;15,9;-198,2;20,0;1463
2021-09-07 07:00:00;16,3;101652;76;0,0086;0,0;0,5;152;1,5;-0,44;0,26;105;0;0;11,7;8,9;13,9;15,4;15,7;15,9;16,2;15,9;-198,4;20,0;1349
2021-09-07 08:00:00;17,8;101682;71;0,0089;0,0;0,7;148;1,6;-0,5;0,38;202;0;0;11,6;8,9;13,9;15,4;16,0;15,9;16,2;15,9;-198,6;20,0;1386
2021-09-07 09:00:00;19,8;101665;66;0,0095;0,0;0,9;144;2,1;-0,63;0,6;382;0;0;11,6;8,8;13,9;15,4;16,4;16,0;16,2;15,9;-199,6;19,9;1415
2021-09-07 10:00:00;22,3;101642;56;0,0093;0,0;1,4;130;3,6;-0,89;1,05;581;0;0;11,6;8,8;13,8;15,3;17,2;16,2;16,2;15,8;-201,8;19,9;1387
2021-09-07 11:00:00;23,1;101630;53;0,0093;0,0;1,5;117;3,4;-0,6;1,32;603;0;0;11,5;8,8;13,8;15,2;17,8;16,5;16,2;15,8;-204,2;19,9;1361
2021-09-07 12:00:00;24,0;101598;52;0,0096;0,0;0,8;108;2,7;-0,32;0,63;562;0;0;11,5;8,8;13,7;15,2;18,4;16,8;16,2;15,9;-205,9;19,9;1343
2021-09-07 13:00:00;24,1;101575;49;0,009;0,0;1,1;111;2,7;-0,37;0,94;468;0;0;11,4;8,7;13,7;15,1;18,8;17,2;16,3;15,8;-208,5;19,9;1399
2021-09-07 14:00:00;24,1;101523;48;0,0088;0,0;2,1;75;3,9;0,52;1,95;181;0;0;11,4;8,7;13,6;15,1;18,9;17,5;16,4;15,8;-210,5;20,0;1367
2021-09-07 15:00:00;23,8;101480;48;0,0088;0,0;1,8;94;3,5;-0,11;1,7;59;0;0;11,4;8,7;13,6;15,0;18,7;17,6;16,5;15,8;-211,3;20,0;1367
2021-09-07 16:00:00;23,2;101455;50;0,0088;0,0;1,1;129;2,6;-0,63;0,85;43;0;0;11,4;8,7;13,6;15,0;18,5;17,7;16,6;15,8;-212,2;20,2;1405
2021-09-07 17:00:00;22,0;101415;56;0,0091;0,0;0,7;99;1,4;-0,09;0,57;20;0;0;11,4;8,7;13,6;15,0;18,3;17,6;16,7;15,8;-212,8;20,4;1534
2021-09-07 18:00:00;20,6;101410;61;0,0091;0,0;1,1;68;1,6;0,4;1,02;1;0;0;11,3;8,7;13,6;15,0;18,1;17,6;16,7;15,8;-213,5;20,4;1391
2021-09-07 19:00:00;19,8;101412;64;0,009;0,0;0,6;75;1,0;0,16;0,62;0;0;0;11,3;8,7;13,5;15,0;17,8;17,5;16,8;15,8;-213,8;20,6;1503
2021-09-07 20:00:00;18,6;101408;67;0,0088;0,0;0,9;104;1,8;-0,23;0,86;0;0;0;11,3;8,7;13,5;15,0;17,5;17,4;16,8;15,8;-213,9;20,4;1476
2021-09-07 21:00:00;17,8;101402;70;0,0088;0,0;0,6;100;1,0;-0,11;0,56;0;0;0;11,3;8,7;13,5;15,0;17,2;17,3;16,8;15,9;-214,2;20,5;1460
2021-09-07 22:00:00;16,9;101385;72;0,0085;0,0;0,8;104;1,4;-0,19;0,74;0;0;0;11,3;8,7;13,5;15,0;17,0;17,1;16,8;15,9;-213,4;20,5;1433
2021-09-07 23:00:00;16,5;101335;71;0,0082;0,0;1,3;113;2,3;-0,52;1,18;0;0;0;11,3;8,7;13,5;15,0;16,8;17,0;16,8;15,9;-213,3;20,4;1437
2021-09-08 00:00:00;16,1;101308;72;0,0081;0,0;1,3;113;2,3;-0,52;1,17;0;0;0;11,3;8,7;13,5;15,0;16,6;16,8;16,7;15,9;-213,6;20,4;1484
2021-09-08 01:00:00;15,8;101275;72;0,008;0,0;1,1;114;2,1;-0,47;1,04;0;0;0;11,3;8,7;13,5;15,0;16,4;16,7;16,7;15,9;-213,3;20,1;1405
2021-09-08 02:00:00;15,5;101243;72;0,0078;0,0;0,8;111;1,7;-0,28;0,74;0;0;0;11,3;8,7;13,5;14,9;16,3;16,6;16,7;15,9;-213,4;20,1;1464
2021-09-08 03:00:00;15,0;101210;73;0,0077;0,0;1,1;122;2,0;-0,6;0,93;0;0;0;11,3;8,7;13,5;14,9;16,1;16,5;16,6;15,9;-213,2;19,9;1399
2021-09-08 04:00:00;14,8;101172;74;0,0076;0,0;1,3;116;2,4;-0,59;1,18;0;0;0;11,3;8,7;13,5;14,9;15,9;16,4;16,6;15,9;-213,0;19,8;1456
2021-09-08 05:00:00;14,8;101145;75;0,0078;0,0;1,8;124;2,9;-1,03;1,48;30;0;0;11,3;8,7;13,5;14,9;15,8;16,3;16,5;15,9;-213,2;19,7;1449
2021-09-08 06:00:00;16,2;101110;73;0,0083;0,0;1,8;121;3,2;-0,95;1,53;138;0;0;11,3;8,7;13,5;14,9;15,8;16,2;16,5;15,9;-213,4;19,9;1421
2021-09-08 07:00:00;17,9;101070;69;0,0087;0,0;2,0;127;3,8;-1,18;1,58;271;0;0;11,3;8,7;13,4;14,9;16,0;16,1;16,5;15,9;-213,8;19,7;1478
2021-09-08 08:00:00;19,8;101053;65;0,0092;0,0;2,0;118;3,5;-0,96;1,78;405;0;0;11,3;8,7;13,4;14,9;16,5;16,2;16,4;15,9;-214,5;20,0;1416